Location: Unspecified
(0.0000°N, 0.0000°E)
Time: 19:53:47

CUTE-I - Pass Details

Date: 12 December 2017
Orbit: 812 x 824 km, 98.7° (Epoch: 22 March)

Event Time Altitude Azimuth Distance (km) Brightness Sun altitude
Rises 18:50:11 0° 193° (SSW) 3,356 ? -12.9°
Reaches altitude 10° 18:53:00 10° 207° (SSW) 2,422 ? -13.6°
Maximum altitude 18:57:05 23° 257° (WSW) 1,705 ? -14.5°
Drops below altitude 10° 19:01:11 10° 307° (NW) 2,416 ? -15.4°
Sets 19:04:01 0° 322° (NW) 3,346 ? -16.1°
